Home   Weather   Friedrichshafen   Past weeks

Flag for Germany Past Weather in Friedrichshafen, Baden-Württemberg, Germany — Yesterday and Last 2 Weeks

Now
77 °F

Sunny.


Feels Like: 79 °F
Forecast: 61 / 74 °F
Wind: 6 mph from Southwest

Location: Friedrichshafen Airport

Current Time: Aug 31, 2016 at 6:10:02 PM

Latest Report: Aug 31, 2016 at 5:20 PM


Visibility: 10 mi

Pressure: 30.12 "Hg

Humidity: 65%

Dew Point: 64 °F

Location of FriedrichshafenLocation

Past Weather in Friedrichshafen — Graph

°F

Friedrichshafen Temperature Yesterday

Maximum temperature yesterday: 75 °F (at 1:50 PM)
Minimum temperature yesterday: 59 °F (at 4:50 AM)
Average temperature yesterday: 67 °F

High & Low Weather Summary for the Past Weeks

 TemperatureHumidityPressure
High88 °F (Aug 26, 3:50 PM)100% (Aug 17, 4:20 AM)30.39 "Hg (Aug 17, 4:20 AM)
Low52 °F (Aug 23, 6:20 AM)38% (Aug 28, 4:50 PM)29.86 "Hg (Aug 17, 5:50 PM)
Average67 °F79%30.10 "Hg
* Reported Aug 16 4:20 PM — Aug 31 4:50 PM, Friedrichshafen, Weather by CustomWeather, © 2016

Note: Actual official high and low records may vary slightly from our data, if they occured in-between our weather recording intervals... More about our weather records

Advertising

Friedrichshafen Weather History for the Previous 24 Hours

Scroll right to see more
 ConditionsComfort  
Time TempWeatherWind HumidityBarometerVisibility
4:50 PM
Wed, Aug 31
77 °FSunny.6 mph65%30.12 "Hg10 mi
4:20 PM77 °FPassing clouds.6 mph61%30.12 "HgN/A
3:50 PM77 °FPassing clouds.6 mph61%30.12 "HgN/A
3:20 PM75 °FPassing clouds.7 mph69%30.15 "HgN/A
2:50 PM77 °FPassing clouds.5 mph57%30.15 "HgN/A
2:20 PM77 °FSunny.5 mph61%30.15 "Hg10 mi
1:50 PM75 °FSunny.3 mph65%30.15 "Hg10 mi
1:20 PM73 °FPassing clouds.3 mph69%30.15 "HgN/A
12:50 PM72 °FPassing clouds.5 mph73%30.18 "HgN/A
12:20 PM72 °FPassing clouds.2 mph69%30.18 "HgN/A
11:50 AM72 °FPassing clouds.3 mph69%30.18 "HgN/A
11:20 AM68 °FScattered clouds.3 mph78%30.18 "HgN/A
10:50 AM68 °FPassing clouds.3 mph78%30.18 "HgN/A
10:20 AM66 °FPassing clouds.3 mph78%30.18 "HgN/A
9:50 AM63 °FScattered clouds.3 mph88%30.18 "HgN/A
9:20 AM61 °FBroken clouds.5 mph88%30.18 "HgN/A
8:50 AM61 °FMore clouds than sun.6 mph88%30.18 "HgN/A
8:20 AM61 °FMore clouds than sun.6 mph88%30.15 "HgN/A
7:50 AM59 °FMore clouds than sun.5 mph94%30.15 "HgN/A
7:20 AM59 °FPartly cloudy.3 mph88%30.15 "HgN/A
6:50 AM59 °FPassing clouds.5 mph88%30.15 "HgN/A
6:20 AM57 °FPassing clouds.3 mph94%30.15 "Hg5 mi
5:50 AM57 °FClear.5 mph94%30.15 "Hg10 mi
5:20 AM59 °FCool.3 mph88%30.15 "HgN/A
4:50 AM59 °FCool.5 mph88%30.15 "HgN/A
4:20 AM59 °FCool.5 mph94%30.15 "HgN/A
3:50 AM61 °FCool.6 mph88%30.15 "HgN/A
3:20 AM61 °FCool.6 mph88%30.15 "HgN/A
2:50 AM61 °FCool.5 mph88%30.15 "HgN/A
2:20 AM61 °FCool.7 mph88%30.15 "HgN/A
1:50 AM63 °FMild.6 mph83%30.15 "HgN/A
1:20 AM63 °FMild.7 mph83%30.15 "HgN/A
12:50 AM63 °FMild.6 mph83%30.15 "HgN/A
12:20 AM64 °FMild.6 mph78%30.15 "HgN/A
11:50 PM
Tue, Aug 30
64 °FMild.5 mph78%30.15 "HgN/A
11:20 PM64 °FMild.6 mph78%30.15 "HgN/A
10:50 PM66 °FPassing clouds.7 mph73%30.15 "HgN/A
10:20 PM66 °FPassing clouds.7 mph68%30.18 "HgN/A
9:50 PM68 °FPassing clouds.8 mph64%30.18 "HgN/A
9:20 PM68 °FPassing clouds.9 mph69%30.18 "HgN/A
8:50 PM70 °FPartly sunny.9 mph64%30.15 "HgN/A
8:20 PM70 °FScattered clouds.8 mph64%30.15 "HgN/A
7:50 PM70 °FSunny.8 mph69%30.15 "Hg10 mi
7:20 PM72 °FSunny.9 mph61%30.15 "Hg10 mi
6:50 PM73 °FSunny.13 mph61%30.15 "Hg10 mi
6:20 PM73 °FPassing clouds.14 mph61%30.15 "HgN/A
Weather by CustomWeather, © 2016

See weather overviewHow to use our weather pages